Weather History for Wooster, OH

Change the Weather History Date:

Sunday, January 20, 2013

  Actual Average Record
Temperature  
Mean Temperature 31 °F -  
Max Temperature 43 °F 28 °F 53 °F (2006)
Min Temperature 19 °F 14 °F -4 °F (2012)
Degree Days  
Heating Degree Days 34    
Moisture  
Dew Point 16 °F    
Average Humidity 62    
Maximum Humidity 71    
Minimum Humidity 56    
Precipitation  
Precipitation 0.00 in - - ()
Sea Level Pressure  
Sea Level Pressure 30.04 in    
Wind  
Wind Speed 19 mph (WNW)    
Max Wind Speed 32 mph    
Max Gust Speed 50 mph    
Visibility 10 miles    
Events Snow    
Averages and records for this station are not official NWS values.
T = Trace of Precipitation, MM = Missing Value Source: NWS Daily Summary

Daily Weather History Graph

Daily Weather History Graph

Search for Another Location

Airport:

Trip Planner

Search our weather history database for the weather conditions in past years. The results will help you decide how hot, cold, wet, or windy it might be!

Date:

Astronomy

Jan. 20, 2013 Rise Set
Actual Time 7:47 AM EST 5:30 PM EST
Civil Twilight 7:17 AM EST 6:00 PM EST
Nautical Twilight 6:43 AM EST 6:33 PM EST
Astronomical Twilight 6:11 AM EST 7:06 PM EST
Moon 12:31 PM EST (1/20) 2:18 AM EST (1/20)
Length of Visible Light 10h 43m
Length of Day
9h 43m
Waxing Gibbous, 66% of the Moon is Illuminated
Jan 20
Waxing Gibbous
Jan 26
Full
Feb 3
Last Quarter
Feb 10
New
Feb 17
First Quarter

Hourly Weather History & Observations

Time (EST) Temp. Windchill Dew Point Humidity Pressure Visibility Wind Dir Wind Speed Gust Speed Precip Events Conditions
12:56 AM 43.0 °F 34.0 °F 28.0 °F 56% 29.75 in 10.0 mi WSW 21.9 mph 34.5 mph N/A   Clear
1:56 AM 42.1 °F 33.9 °F 28.9 °F 60% 29.73 in 10.0 mi WSW 17.3 mph 28.8 mph N/A   Clear
2:56 AM 42.1 °F 32.6 °F 30.9 °F 65% 29.75 in 10.0 mi WSW 23.0 mph 32.2 mph N/A   Scattered Clouds
3:56 AM 41.0 °F 29.5 °F 30.0 °F 65% 29.78 in 10.0 mi West 32.2 mph 49.5 mph N/A   Scattered Clouds
4:56 AM 37.9 °F 26.6 °F 24.1 °F 57% 29.81 in 10.0 mi West 25.3 mph 41.4 mph N/A   Partly Cloudy
5:56 AM 34.0 °F 21.5 °F 19.9 °F 56% 29.87 in 10.0 mi WNW 24.2 mph 32.2 mph N/A   Mostly Cloudy
6:56 AM 30.0 °F 18.7 °F 17.1 °F 59% 29.94 in 10.0 mi WNW 16.1 mph 29.9 mph N/A   Partly Cloudy
7:56 AM 28.0 °F 15.7 °F 17.1 °F 63% 29.99 in 10.0 mi West 17.3 mph 26.5 mph N/A   Mostly Cloudy
8:56 AM 26.1 °F 11.0 °F 14.0 °F 60% 30.04 in 10.0 mi WNW 24.2 mph 32.2 mph N/A   Scattered Clouds
9:56 AM 25.0 °F 10.2 °F 15.1 °F 66% 30.09 in 10.0 mi WNW 21.9 mph 28.8 mph N/A   Overcast
10:56 AM 24.1 °F 9.0 °F 12.9 °F 62% 30.14 in 10.0 mi WNW 21.9 mph 25.3 mph 0.00 in Snow Light Snow
11:56 AM 25.0 °F 10.6 °F 12.0 °F 58% 30.15 in 10.0 mi West 20.7 mph 26.5 mph 0.00 in   Overcast
12:56 PM 23.0 °F 8.7 °F 12.0 °F 63% 30.15 in 10.0 mi West 18.4 mph 24.2 mph N/A   Overcast
1:56 PM 23.0 °F 9.6 °F 10.9 °F 60% 30.14 in 10.0 mi WNW 16.1 mph 20.7 mph N/A   Mostly Cloudy
2:56 PM 24.1 °F 13.1 °F 10.9 °F 57% 30.14 in 10.0 mi WNW 11.5 mph - N/A   Partly Cloudy
3:56 PM 25.0 °F 14.2 °F 12.0 °F 58% 30.15 in 10.0 mi NW 11.5 mph - N/A   Mostly Cloudy
4:56 PM 24.1 °F 10.6 °F 12.0 °F 60% 30.18 in 10.0 mi WNW 17.3 mph 21.9 mph N/A   Mostly Cloudy
5:56 PM 23.0 °F 11.7 °F 12.0 °F 63% 30.17 in 10.0 mi WNW 11.5 mph - N/A   Overcast
6:56 PM 21.9 °F 9.8 °F 12.0 °F 66% 30.19 in 10.0 mi WNW 12.7 mph 19.6 mph N/A   Scattered Clouds
7:56 PM 21.9 °F 10.4 °F 12.0 °F 66% 30.19 in 10.0 mi WNW 11.5 mph - N/A   Mostly Cloudy
8:56 PM 21.0 °F 9.9 °F 12.0 °F 68% 30.19 in 10.0 mi WNW 10.4 mph - N/A   Mostly Cloudy
9:56 PM 21.0 °F 10.6 °F 12.0 °F 68% 30.19 in 10.0 mi West 9.2 mph - N/A   Overcast
10:56 PM 19.9 °F 10.1 °F 12.0 °F 71% 30.18 in 10.0 mi WNW 8.1 mph - N/A   Mostly Cloudy
11:56 PM 19.9 °F 9.3 °F 10.9 °F 68% 30.17 in 10.0 mi WNW 9.2 mph - N/A   Overcast